Hondo, TX

12:53 AM CDT on September 26, 2017 (GMT -0500)
Hondo Municipal

Weather History for KHDO - October, 2013

Change the Weather History Date:

Monday, October 7, 2013

  Actual Average Record
Temperature  
Mean Temperature 68 °F -  
Max Temperature 88 °F 81 °F 95 °F (2011)
Min Temperature 48 °F 59 °F 46 °F (1998)
Cooling Degree Days 3    
Growing Degree Days 18 (Base 50)    
Moisture  
Dew Point 44 °F    
Average Humidity 51    
Maximum Humidity 83    
Minimum Humidity 17    
Precipitation  
Precipitation 0.00 in - - ()
Sea Level Pressure  
Sea Level Pressure 30.11 in    
Wind  
Wind Speed 5 mph (North)    
Max Wind Speed 7 mph    
Max Gust Speed -    
Visibility 10 miles    
Events      
Averages and records for this station are not official NWS values.
T = Trace of Precipitation, MM = Missing Value Source: NWS Daily Summary

Daily Weather History Graph

Daily Weather History Graph

Search for Another Location

Airport or City:

Trip Planner

Search our weather history database for the weather conditions in past years. The results will help you decide how hot, cold, wet, or windy it might be!

Date:

Astronomy

Oct. 07, 2013 Rise Set
Actual Time 7:33 AM CDT 7:14 PM CDT
Civil Twilight 7:09 AM CDT 7:38 PM CDT
Nautical Twilight 6:42 AM CDT 8:06 PM CDT
Astronomical Twilight 6:14 AM CDT 8:33 PM CDT
Moon 10:11 AM CDT (10/7) 9:16 PM CDT (10/7)
Length of Visible Light 12h 29m
Length of Day
11h 41m
Waxing Crescent, 9% of the Moon is Illuminated
Oct 7
Waxing Crescent
Oct 11
First Quarter
Oct 18
Full
Oct 26
Last Quarter
Nov 3
New

Hourly Weather History & Observations

Time (CDT) Temp. Dew Point Humidity Pressure Visibility Wind Dir Wind Speed Gust Speed Precip Events Conditions
12:51 AM 55.0 °F 46.0 °F 72% 30.14 in 10.0 mi North 6.9 mph - N/A   Clear
1:51 AM 54.0 °F 46.0 °F 75% 30.13 in 10.0 mi North 3.5 mph - N/A   Clear
2:51 AM 53.1 °F 45.0 °F 74% 30.13 in 10.0 mi NNW 4.6 mph - N/A   Clear
3:51 AM 50.0 °F 45.0 °F 83% 30.11 in 10.0 mi North 6.9 mph - N/A   Clear
4:51 AM 50.0 °F 44.1 °F 80% 30.12 in 10.0 mi North 5.8 mph - N/A   Clear
5:51 AM 51.1 °F 44.1 °F 77% 30.12 in 10.0 mi North 3.5 mph - N/A   Clear
6:51 AM 48.9 °F 43.0 °F 80% 30.13 in 10.0 mi North 5.8 mph - N/A   Clear
7:51 AM 48.9 °F 44.1 °F 83% 30.14 in 10.0 mi NNW 4.6 mph - N/A   Clear
8:51 AM 59.0 °F 48.0 °F 67% 30.16 in 10.0 mi North 5.8 mph - N/A   Clear
9:51 AM 69.1 °F 48.9 °F 49% 30.16 in 10.0 mi North 3.5 mph - N/A   Clear
10:51 AM 77.0 °F 48.0 °F 36% 30.17 in 10.0 mi Variable 3.5 mph - N/A   Clear
11:51 AM 82.9 °F 39.0 °F 21% 30.16 in 10.0 mi NW 6.9 mph - N/A   Clear
12:51 PM 84.9 °F 39.0 °F 20% 30.14 in 10.0 mi West 6.9 mph - N/A   Clear
1:51 PM 86.0 °F 39.0 °F 19% 30.11 in 10.0 mi ESE 3.5 mph - N/A   Clear
2:51 PM 87.1 °F 37.0 °F 17% 30.08 in 10.0 mi Variable 4.6 mph - N/A   Clear
3:51 PM 88.0 °F 39.0 °F 18% 30.06 in 10.0 mi SSE 6.9 mph - N/A   Clear
4:51 PM 87.1 °F 37.0 °F 17% 30.04 in 10.0 mi Calm Calm - N/A   Clear
5:51 PM 87.1 °F 37.0 °F 17% 30.04 in 10.0 mi Calm Calm - N/A   Clear
6:51 PM 80.1 °F 44.1 °F 28% 30.04 in 10.0 mi South 6.9 mph - N/A   Clear
7:51 PM 75.9 °F 45.0 °F 33% 30.05 in 10.0 mi South 5.8 mph - N/A   Clear
8:51 PM 73.0 °F 46.0 °F 38% 30.06 in 10.0 mi SE 5.8 mph - N/A   Clear
9:51 PM 61.0 °F 52.0 °F 72% 30.08 in 10.0 mi Calm Calm - N/A   Clear
10:51 PM 60.1 °F 52.0 °F 75% 30.08 in 10.0 mi Calm Calm - N/A   Clear
11:51 PM 57.9 °F 50.0 °F 75% 30.08 in 10.0 mi NE 5.8 mph - N/A   Clear